Location: Unspecified
(0.0000°N, 0.0000°E)
Time: 07:08:07
(UTC+00:00)

AEROCUBE 6B - Visible Passes

Search period start: 09 June 2023 00:00
Search period end: 19 June 2023 00:00
Orbit: 593 x 669 km, 97.7° (Epoch: 08 June)

Date Brightness Start Highest point End Pass type
(mag) Time Alt. Az. Time Alt. Az. Time Alt. Az.
09 Jun ? 05:07:38 10° SE 05:11:18 27° E 05:14:54 10° NNE visible
10 Jun ? 05:27:41 10° SSE 05:31:54 55° ENE 05:36:02 10° N visible
13 Jun ? 04:54:38 10° ESE 04:57:30 18° E 05:00:20 10° NE visible
13 Jun ? 18:41:19 10° NW 18:43:36 14° WNW 18:45:56 10° WSW visible
14 Jun ? 05:14:12 10° SE 05:18:04 34° E 05:21:52 10° NNE visible
17 Jun ? 04:42:22 10° E 04:43:34 11° ENE 04:44:46 10° ENE visible
17 Jun ? 18:26:18 10° NNW 18:29:43 21° WNW 18:33:10 10° SW visible
18 Jun ? 05:00:49 10° SE 05:04:06 22° ENE 05:07:20 10° NNE visible
18 Jun ? 18:49:01 10° WNW 18:50:14 11° WNW 18:51:28 10° W visible
